Starlink 34535

operational
NORAD ID: 64698 Int'l Des: 2025-142 Owner: SPXS Country: US Constellation: starlink
LEOCIRCULAR

Starlink 34535について

説明を読み込み中...

リアルタイム位置

3D地球を読み込み中...

次回通過

高度履歴

Altitude vs Time

uPlot chart will show altitude changes over time

軌道要素

1 64698U 25142C 25340.93603546 .00008702 00000-0 78290-3 0 9993
2 64698 70.0011 188.0439 0002377 252.7755 107.3143 14.95927272 25586
Epoch: Dec 6, 2025 • Age: 19 hours

現在のステータス

高度 599.1 km
速度 7.56 km/s
衛星直下点 -55.18°S, 176.18°E
打ち上げ日 Jun 28, 2025
運用期間 0.4 years
タイプ internet

技術仕様

分類 Payload
質量 575.00 kg
乾燥質量 530.00 kg
総質量 575.00 kg
長さ 0.30 m
直径 4.10 m
スパン 29.00 m
形状 Box + pan
製造者 SPXS
バスタイプ Starlink V2MO
フェーズステータス In Orbit
所有者/国 SPXS/US

大規模コンステレーション

Loading constellations...